Kezdőlap
METAR-TAF:

METAR-TAF

Repülőterek :

Dewar Lakes, Nunavut, Kanada

földrajzi szélesség: 68-39N, földrajzi hosszúság: 071-10W, magasság: 518 m

Jelenlegi meteorológiai megfigyelések

A jelentés 36 perccel ezelõtt készült, 16:00 UTC
Északi szél 5 kt
Hőmérséklet -12°C
Páratartalom 85%
Légköri nyomás 1000 hPa
Borult 2200 lábon

METAR: CWUW 281600Z AUTO 36005KT ////SM OVC022 M12/M14 A2952

Idő: 12:36 (16:36 UTC)


TAF: hiányzik

Meteorológiai megfigyelések és előrejelzések több, mint 4000 repülőtéren (METAR és TAF jelentéseket).

A térképen piros és sárga pontok jelzik az elérhető meteorológiai állomásokat.

Mozgassa az egeret a pont fölött, hogy megjelenjen az állomás neve.

Azután kattintson az időjárási megfigyelések és előrejelzések megtekintéséhez.

A térkép megváltoztatása: kattintson a fekete keresztel jelölt zöld gombra ráközelítéshez, a vonallal jelölt zöld gombra távolításhoz, vagy a zöld nyilakra a szomszédos térképek eléréséhez.


METAR-TAF: